Location: Saint Mary
(48.7436°N, 113.4291°W)
Time: 22:39:38
(UTC+00:00)

Tiangong - Visible Passes

Search period start: 26 January 2022 00:00
Search period end: 05 February 2022 00:00
Orbit: 382 x 386 km, 41.5° (Epoch: 26 January)

Date Brightness Start Highest point End Pass type
(mag) Time Alt. Az. Time Alt. Az. Time Alt. Az.
29 Jan 3.7 02:40:28 10° SSW 02:41:20 14° SSW 02:41:20 14° SSW visible
30 Jan 3.5 01:41:27 10° S 01:43:01 13° SSE 01:44:28 10° SE visible
31 Jan 3.0 02:17:08 10° SW 02:19:33 20° S 02:19:45 20° SSE visible
01 Feb 3.3 01:17:45 10° SSW 01:19:53 17° SSE 01:22:01 10° ESE visible
01 Feb 3.5 02:53:36 10° SW 02:55:00 18° SSW 02:55:00 18° SSW visible
02 Feb 3.0 01:53:54 10° SW 01:56:25 22° S 01:58:01 15° SE visible
03 Feb 3.1 02:30:31 10° WSW 02:32:56 20° S 02:33:14 20° S visible
04 Feb 3.1 01:30:40 10° SW 01:33:11 22° S 01:35:42 10° SE visible
04 Feb 4.1 03:07:45 10° SW 03:08:29 12° SW 03:08:29 12° SW visible
